[[{"header":{"parameterUnit":"m.s-1","parameterCategory":1,"la1":30.2991,"la2":30.254,"lo1":-89.0895,"lo2":-89.0444,"dy":0.0017,"dx":0.0017,"nx":28,"ny":28,"refTime":"2024-08-30T21:00:00:Z","depth":0,"parameterNumber":2,"parameterNumberName":"U-component_of_WINDS"},"data":[0,0,0,0,0,0,0,0,0,0,0,0,0,0,0,0,0,0,0,0,0,0,0,0,0,0,0,0,0,0,0,0,0,0,0,0,0,0,0,0,0,0,0,0,0,0,0,0,0,0,0,0,0,0,0,0,0,0,-6.6387,-6.6387,0,-6.6363,-6.6363,-6.6363,-6.6188,-6.6183,-6.6179,-6.6175,-6.6152,-6.6156,-6.6159,0,0,0,0,0,0,0,0,0,0,0,0,0,-6.628,-6.6283,-6.6387,-6.6387,-6.6386,-6.6364,-6.6363,-6.6363,-6.6188,-6.6183,-6.6178,-6.6173,-6.6151,-6.6155,-6.616,0,0,0,0,0,0,0,0,0,0,0,0,0,-6.6299,-6.6284,-6.6387,-6.6296,-6.6288,-6.6364,-6.6363,-6.6363,-6.6189,-6.6183,-6.6176,-6.617,-6.615,-6.6155,-6.616,-6.6321,0,0,-6.6176,-6.6178,0,0,0,0,0,0,0,0,-6.6298,-6.6303,-6.631,-6.6303,-6.6294,-6.6272,-6.6317,-6.6349,-6.6191,-6.6227,-6.6175,-6.6167,-6.6198,-6.6198,-6.6208,-6.632,-6.6319,-6.6176,-6.6179,-6.6182,-6.6183,0,0,0,0,0,0,0,-6.6297,-6.6303,-6.6378,-6.631,-6.63,-6.6257,-6.6252,-6.6322,-6.6249,-6.6223,-6.6211,-6.621,-6.6192,-6.6204,-6.6206,-6.6319,-6.6176,-6.6181,-6.6184,-6.6186,-6.6557,-6.6564,0,0,0,0,0,0,-6.6308,-6.6303,-6.6378,-6.6377,-6.628,-6.6264,-6.6259,-6.6285,-6.6248,-6.6236,-6.6216,-6.6202,-6.6198,-6.6201,-6.6205,-6.6387,-6.6181,-6.6186,-6.6189,-6.6551,-6.6559,-6.6566,0,0,0,0,0,0,-6.6306,-6.6316,-6.6379,-6.6336,-6.6341,-6.6273,-6.6304,-6.6288,-6.63,-6.6242,-6.6228,-6.6241,-6.6193,-6.6198,-6.6292,-6.6384,-6.6189,-6.6193,-6.6543,-6.6553,-6.6563,-6.6755,0,0,0,0,0,0,-6.6304,-6.6317,-6.6378,-6.6339,-6.6344,-6.6468,-6.631,-6.6293,-6.6309,-6.6291,-6.6262,-6.6251,-6.6188,-6.6286,-6.6298,-6.6387,-6.6197,-6.6534,-6.6547,-6.6559,-6.674,-6.6771,-6.6797,0,0,0,0,0,-6.6301,-6.6434,-6.6382,-6.6392,-6.6419,-6.6474,-6.6476,-6.6401,-6.6317,-6.6377,-6.6339,-6.6252,-6.6373,-6.6297,-6.6309,-6.6402,-6.6528,-6.6544,-6.6558,-6.6728,-6.6765,-6.6796,0,0,0,0,0,0,-6.6487,-6.6428,-6.6369,-6.6494,-6.649,-6.6444,-6.6517,-6.6443,-6.6464,-6.6446,-6.6352,-6.6347,-6.6455,-6.6438,-6.6355,-6.6553,-6.6435,-6.6454,-6.656,-6.6595,-6.6622,-6.6622,-6.6202,0,0,0,0,0,-6.6542,-6.6592,-6.6538,-6.6653,-6.6654,-6.6587,-6.6608,-6.655,-6.6542,-6.654,-6.6509,-6.6506,-6.6542,-6.6568,-6.6599,-6.6738,-6.6728,-6.6808,-6.6836,-6.686,-6.6876,-6.6944,-6.6978,-6.6616,-6.6616,-6.6616,0,0,-6.6658,-6.6631,-6.6669,-6.669,-6.668,-6.6732,-6.6586,-6.6649,-6.6686,-6.655,-6.6635,-6.6614,-6.6603,-6.672,-6.677,-6.6709,-6.6974,-6.6879,-6.6898,-6.6901,-6.6963,-6.6998,-6.7028,-6.6627,-6.6625,-6.6623,0,0,-6.6893,-6.688,-6.6972,-6.6965,-6.6951,-6.6905,-6.6927,-6.6892,-6.6871,-6.6956,-6.6854,-6.6898,-6.6964,-6.6959,-6.6965,-6.7198,-6.7117,-6.7211,-6.7357,-6.7425,-6.7453,-6.7478,-6.7556,-6.7586,-6.7228,-6.7228,-6.7228,0,-6.7037,-6.7111,-6.7029,-6.7097,-6.7107,-6.6986,-6.7077,-6.7075,-6.7073,-6.7083,-6.7015,-6.7093,-6.7078,-6.719,-6.7246,-6.7257,-6.7278,-6.7212,-6.7456,-6.748,-6.7501,-6.7575,-6.7606,-6.7239,-6.7238,-6.7237,-6.7236,0,-6.7288,-6.7341,-6.7417,-6.7415,-6.7436,-6.7516,-6.7444,-6.7475,-6.7416,-6.7377,-6.7463,-6.7441,-6.7463,-6.7486,-6.743,-6.759,-6.7552,-6.7472,-6.735,-6.7548,-6.7616,-6.7644,-6.7255,-6.7251,-6.7248,-6.7245,0,0,-6.7638,-6.7588,-6.7617,-6.7613,-6.7589,-6.7628,-6.7702,-6.7722,-6.7748,-6.7752,-6.7809,-6.7867,-6.7792,-6.78,-6.7742,-6.7802,-6.7982,-6.7714,-6.7712,-6.7761,-6.8153,-6.821,-6.8244,-6.793,-6.7936,-6.794,-6.8152,0,-6.786,-6.7981,-6.7908,-6.804,-6.8086,-6.797,-6.8034,-6.8026,-6.7992,-6.8026,-6.7988,-6.8029,-6.7929,-6.7932,-6.7987,-6.7949,-6.8059,-6.7933,-6.7981,-6.7983,-6.7982,-6.828,-6.8341,-6.8542,-6.8178,-6.8183,-6.8186,0,-6.8135,-6.8146,-6.8282,-6.8245,-6.8262,-6.832,-6.8331,-6.8366,-6.8354,-6.8324,-6.8333,-6.8259,-6.8328,-6.8212,-6.8304,-6.822,-6.8235,-6.822,-6.8226,-6.8224,-6.8094,-6.8282,-6.8605,-6.8634,-6.8228,-6.8224,-6.8221,0,-6.837,-6.8421,-6.8507,-6.8508,-6.8469,-6.8512,-6.8497,-6.8479,-6.8495,-6.8505,-6.8514,-6.8534,-6.8544,-6.8561,-6.8495,-6.8417,-6.8595,-6.8474,-6.857,-6.8572,-6.8609,-6.8607,-6.8935,-6.8628,-6.8628,-6.8627,-6.8627,0,-6.8623,-6.8709,-6.8612,-6.8665,-6.8757,-6.8673,-6.8768,-6.8741,-6.8726,-6.8771,-6.8675,-6.8719,-6.8631,-6.8667,-6.8617,-6.8698,-6.8705,-6.8682,-6.8666,-6.8688,-6.869,-6.8693,-6.8676,-6.8635,-6.8633,-6.8632,-6.863,0,-6.89,-6.8839,-6.8924,-6.8879,-6.887,-6.894,-6.8901,-6.8947,-6.8907,-6.8965,-6.8974,-6.891,-6.8947,-6.8884,-6.8914,-6.888,-6.8992,-6.8958,-6.8996,-6.8984,-6.9082,-6.9072,-6.942,-6.946,-6.9132,-6.9136,-6.9138,0,-6.9063,-6.9126,-6.9086,-6.9109,-6.9099,-6.9138,-6.9152,-6.9073,-6.9092,-6.9082,-6.9129,-6.9158,-6.9176,-6.924,-6.9197,-6.9219,-6.9181,-6.9302,-6.9184,-6.9202,-6.9177,-6.9172,-6.9176,-6.9325,-6.9329,-6.9332,-6.9335,0,-6.9356,-6.9322,-6.9346,-6.936,-6.938,-6.9388,-6.9388,-6.9413,-6.9328,-6.9355,-6.939,-6.9404,-6.9433,-6.9462,-6.9473,-6.9458,-6.9382,-6.9373,-6.9395,-6.9415,-6.9432,-6.942,-6.9057,-6.9364,-6.9361,-6.9359,-6.9357,-6.9356,-6.9577,-6.9626,-6.9605,-6.9635,-6.9626,-6.9629,-6.9669,-6.9632,-6.966,-6.9675,-6.9628,-6.9674,-6.9659,-6.9665,-6.9659,-6.9694,-6.964,-6.9674,-6.9682,-6.969,-6.9704,-6.9431,-6.9696,-6.9695,-6.9695,-6.9694,-6.9693,0,-6.9861,-6.9842,-6.987,-6.9872,-6.9895,-6.9822,-6.9818,-6.9842,-6.9883,-6.9875,-6.9894,-6.9933,-6.996,-6.992,-6.994,-6.9975,-6.9941,-6.9983,-6.9977,-6.9974,-6.9753,-6.9729,-7.001,-7.001,-7.001,-7.001,-7.001,-7.001,-7.0012,-7.0089,-7.0052,-7.0124,-7.0104,-7.0146,-7.015,-7.0151,-7.0143,-7.0191,-7.0212,-7.0185,-7.0163,-7.0181,-7.0202,-7.0189,-7.0199,-7.0253,-7.0228,-7.0021,-6.999,-6.996,-6.9937,-7.0257,-7.0258,-7.0445,-7.0447,-7.0448]},{"header":{"parameterUnit":"m.s-1","parameterCategory":1,"la1":30.2991,"la2":30.254,"lo1":-89.0895,"lo2":-89.0444,"dy":0.0017,"dx":0.0017,"nx":28,"ny":28,"refTime":"2024-08-30T21:00:00:Z","depth":0,"parameterNumber":3,"parameterNumberName":"V-component_of_WINDS"},"data":[0,0,0,0,0,0,0,0,0,0,0,0,0,0,0,0,0,0,0,0,0,0,0,0,0,0,0,0,0,0,0,0,0,0,0,0,0,0,0,0,0,0,0,0,0,0,0,0,0,0,0,0,0,0,0,0,0,0,1.4811,1.4812,0,1.4922,1.4923,1.4924,1.497,1.497,1.4969,1.4969,1.5074,1.5077,1.508,0,0,0,0,0,0,0,0,0,0,0,0,0,1.463,1.4633,1.4811,1.4812,1.4814,1.4921,1.4923,1.4924,1.497,1.497,1.4969,1.4969,1.5073,1.5077,1.508,0,0,0,0,0,0,0,0,0,0,0,0,0,1.4721,1.4634,1.4811,1.485,1.4854,1.4921,1.4923,1.4925,1.497,1.497,1.4969,1.4969,1.5072,1.5077,1.5081,1.5115,0,0,1.5095,1.5097,0,0,0,0,0,0,0,0,1.4716,1.4728,1.4842,1.4847,1.4852,1.4932,1.4898,1.4988,1.497,1.4926,1.4969,1.4969,1.5027,1.5035,1.5056,1.512,1.5124,1.5095,1.5098,1.51,1.5101,0,0,0,0,0,0,0,1.471,1.4723,1.4854,1.4844,1.485,1.4859,1.4871,1.4915,1.4976,1.493,1.4933,1.4946,1.5029,1.5052,1.5059,1.5126,1.5095,1.5099,1.5102,1.5103,1.5223,1.5223,0,0,0,0,0,0,1.4698,1.4718,1.4851,1.4858,1.4782,1.4862,1.4876,1.4906,1.4976,1.4986,1.4946,1.4948,1.5044,1.5054,1.5063,1.5108,1.51,1.5104,1.5107,1.5222,1.5223,1.5223,0,0,0,0,0,0,1.4694,1.471,1.4846,1.4789,1.4807,1.4866,1.4899,1.4909,1.4931,1.4989,1.4999,1.4959,1.5044,1.5056,1.5102,1.5112,1.5106,1.511,1.5222,1.5222,1.5223,1.5197,0,0,0,0,0,0,1.4689,1.4708,1.4724,1.4789,1.481,1.4887,1.49,1.4911,1.494,1.4943,1.5003,1.5013,1.5045,1.5095,1.5107,1.5118,1.5114,1.5221,1.5222,1.5223,1.5197,1.5197,1.5196,0,0,0,0,0,1.4682,1.471,1.4724,1.474,1.4831,1.4887,1.4899,1.4938,1.4941,1.4956,1.4992,1.5011,1.5109,1.51,1.5113,1.5125,1.522,1.5222,1.5223,1.5198,1.5197,1.5196,0,0,0,0,0,0,1.4641,1.4719,1.4736,1.4786,1.483,1.4895,1.4915,1.4936,1.4978,1.4978,1.5022,1.5035,1.5077,1.5106,1.5094,1.5162,1.5166,1.5169,1.5142,1.5142,1.5142,1.5134,1.5117,0,0,0,0,0,1.4638,1.468,1.4745,1.4783,1.4804,1.4856,1.4881,1.4908,1.4954,1.4972,1.5012,1.5053,1.5094,1.5119,1.5159,1.5201,1.5214,1.5216,1.5215,1.5215,1.5218,1.5242,1.5243,1.5227,1.5227,1.5227,0,0,1.4632,1.468,1.4703,1.4776,1.4813,1.4853,1.4871,1.4912,1.4942,1.4977,1.5024,1.5054,1.5103,1.5148,1.5169,1.5172,1.5225,1.5216,1.5215,1.5219,1.5243,1.5244,1.5246,1.5227,1.5227,1.5227,0,0,1.4642,1.4683,1.472,1.4757,1.4814,1.4848,1.4856,1.4918,1.4941,1.4989,1.5017,1.505,1.5119,1.5153,1.5179,1.5201,1.5219,1.5212,1.521,1.5233,1.5234,1.5235,1.5243,1.5246,1.5215,1.5215,1.5215,0,1.4627,1.4691,1.4735,1.4776,1.4806,1.4843,1.4879,1.4912,1.4977,1.4996,1.5,1.5087,1.5122,1.5175,1.518,1.52,1.521,1.5206,1.5231,1.5233,1.5234,1.5243,1.5245,1.5213,1.5214,1.5214,1.5214,0,1.4669,1.4713,1.4735,1.4802,1.4834,1.4872,1.4919,1.4946,1.4969,1.5002,1.5049,1.5093,1.5143,1.5157,1.5179,1.5212,1.5213,1.5223,1.5228,1.5234,1.5243,1.5246,1.5212,1.5212,1.5213,1.5213,0,0,1.4657,1.4748,1.4755,1.4786,1.4851,1.4885,1.4922,1.4974,1.4997,1.504,1.5072,1.5129,1.5139,1.5169,1.5194,1.5214,1.5229,1.5222,1.5223,1.5222,1.5268,1.5261,1.5264,1.5241,1.5242,1.5242,1.5264,0,1.4677,1.4752,1.4792,1.4848,1.4888,1.4923,1.4956,1.4998,1.5029,1.5066,1.5098,1.5139,1.5148,1.5167,1.5188,1.5223,1.5239,1.5221,1.527,1.5271,1.5258,1.5269,1.5262,1.5281,1.5268,1.5268,1.5269,0,1.471,1.4756,1.4818,1.4879,1.4897,1.4927,1.4977,1.5012,1.5059,1.508,1.5114,1.5139,1.5178,1.5179,1.5233,1.522,1.5242,1.5262,1.5263,1.527,1.5271,1.5276,1.5288,1.5291,1.5274,1.5274,1.5274,0,1.4696,1.4773,1.482,1.4845,1.4917,1.4937,1.4967,1.5015,1.5043,1.5085,1.5104,1.5149,1.5174,1.5207,1.5243,1.5241,1.5293,1.5297,1.531,1.5309,1.532,1.5319,1.5336,1.5332,1.5332,1.5332,1.5332,0,1.4714,1.475,1.4815,1.4844,1.4885,1.4929,1.4967,1.5,1.5041,1.5075,1.5106,1.5136,1.5182,1.5217,1.5245,1.5285,1.5295,1.5312,1.5319,1.531,1.5308,1.5326,1.5325,1.5333,1.5333,1.5333,1.5333,0,1.4706,1.4751,1.4805,1.487,1.4886,1.4914,1.4967,1.4995,1.5028,1.507,1.5082,1.5132,1.5175,1.5214,1.527,1.5289,1.5329,1.5338,1.5315,1.5319,1.533,1.5329,1.5359,1.5365,1.5356,1.5356,1.5356,0,1.4715,1.4745,1.4813,1.484,1.4871,1.4912,1.4942,1.4985,1.5014,1.507,1.5091,1.5137,1.5176,1.5243,1.5282,1.5325,1.5335,1.5343,1.5341,1.5331,1.5336,1.5334,1.5337,1.5342,1.5342,1.5342,1.5342,0,1.4727,1.4748,1.4792,1.4844,1.4879,1.4921,1.4963,1.4982,1.5032,1.5063,1.5109,1.514,1.5198,1.5243,1.529,1.5318,1.5338,1.5342,1.5347,1.5339,1.5325,1.5333,1.5314,1.5341,1.5341,1.5341,1.5342,1.5342,1.4729,1.4757,1.481,1.4857,1.4894,1.4933,1.4963,1.5,1.504,1.5094,1.5115,1.5162,1.5207,1.5273,1.53,1.5335,1.5339,1.5347,1.5349,1.535,1.5349,1.5318,1.5344,1.5344,1.5344,1.5344,1.5344,0,1.4743,1.4779,1.4823,1.4883,1.4919,1.4937,1.4985,1.5013,1.5055,1.5097,1.5136,1.5188,1.5231,1.5274,1.5319,1.5338,1.5348,1.5349,1.5348,1.5354,1.5343,1.5334,1.534,1.534,1.534,1.534,1.534,1.534,1.4755,1.4804,1.4831,1.4897,1.4932,1.4981,1.5006,1.5041,1.5075,1.5133,1.517,1.5199,1.524,1.5289,1.5328,1.5339,1.5354,1.5352,1.5366,1.5355,1.5355,1.5355,1.5347,1.5355,1.5355,1.5374,1.5375,1.5375]}]]